GOES 16 [+]

Last updated on July 6, 2021, 3:23 p.m. UTC

1 41866U 16071A   21187.06262538 -.00000238  00000-0  00000+0 0  9994
2 41866   0.0984 102.4036 0001595  54.4578  74.8088  1.00265488 16991
UTC
Height (km)
Latitude
Longitude
Inclination
Orbital Period
UTC large
Height (km)
Speed (km/s)
/
Latitude / Longitude
Inclination (degrees)
Orbital Period (minutes)
Azimuth
Elevation
Range (km)
Doppler Factor
iOS Compass Heading
iOS Angle